Regional Weather Roundup
Issued by NWS

Home | Current Version | Previous Version | Text Only | Print | Product List | Glossary Off
Versions: 1 2 3 4 5 6 7 8 9 10 11 12 13 14 15 16 17 18 19 20 21 22 23 24 25 26 27 28 29 30 31 32 33 34 35 36 37 38 39 40 41 42 43 44 45 46 47 48 49 50

000
ASUS45 KSLC 261410
RWRUT

UTAH REGIONAL WEATHER ROUNDUP
NATIONAL WEATHER SERVICE SALT LAKE CITY UT
800 AM MDT THU MAR 26 2015

UTZ001>011-023>025-261500-

NORTHERN UTAH

CITY           SKY/WX    TMP DP  RH WIND       PRES   REMARKS
BRIGHAM CITY   CLEAR     33  27  81 NW3       30.42R
HILL AFB       PTCLDY    35  21  56 E14       30.40R WCI  26
LOGAN          CLEAR     29  27  92 NW3       30.41R
OGDEN          CLEAR     34  22  61 S7        30.40R WCI  28
PROVO AIRPORT  PTCLDY    30  19  64 CALM      30.42R
SALT LAKE CITY PTCLDY    37  22  54 SE7       30.40R WCI  32
VERNAL         CLEAR     30  16  56 W5        30.38R WCI  25
WENDOVER       PTCLDY    36  19  51 CALM      30.40R
HEBER CITY     PTCLDY    23  18  80 CALM      30.42R
WEST JORDAN    CLEAR     34  21  60 S3        30.40S

$$

UTZ012>022-026-027-261500-

SOUTHERN/CENTRAL UTAH

CITY           SKY/WX    TMP DP  RH WIND       PRES   REMARKS
BLANDING       PTCLDY    31  15  52 N5        30.41R WCI  26
BRYCE CANYON   PTCLDY    25  15  66 NE7       30.40S WCI  17
CEDAR CITY     PTCLDY    30  14  51 E3        30.38S
DELTA          MOCLDY    27  14  59 S6        30.41R WCI  20
HANKSVILLE     CLEAR     30  12  47 NW3       30.38R
MILFORD        CLEAR     25   9  50 S3        30.40R
MOAB/CYNLANDS  CLEAR     33  12  41 SW3       30.35R
PRICE          PTCLDY    39  18  42 CALM      30.34S
ST GEORGE      MOSUNNY   48  14  25 E8        30.33R
KANAB          CLEAR     39  14  35 NE7       30.39R WCI  34

$$

REGIONAL REPORTS     COLORADO/ARIZONA

CITY           SKY/WX    TMP DP  RH WIND       PRES   REMARKS
CRAIG, CO      PTCLDY    24  20  84 CALM      30.38F
GRAND JUNCTION CLEAR     33  18  53 CALM      30.38R
RIFLE          CLEAR     25  18  74 E6        30.42R WCI  18
MONTROSE       CLEAR     30  17  58 S7        30.42R WCI  23
CORTEZ         CLEAR     27  13  55 E10       30.31R WCI  17
PAGE, AZ       NOT AVBL
GRAND CANYON   PTCLDY    31  14  49 CALM      30.35R
KINGMAN        CLEAR     44  18  35 NE7       30.25R
FLAGSTAFF      PTCLDY    39   4  23 NE14      30.33R WCI  31

$$

REGIONAL REPORTS    NEVADA/IDAHO/WYOMING

CITY           SKY/WX    TMP DP  RH WIND       PRES   REMARKS
LAS VEGAS, NV  PTCLDY    59  22  24 S8        30.22R
ELY            PTCLDY    26  16  65 S12       30.42S WCI  16
ELKO           PTCLDY    31  26  82 NE3       30.40S
POCATELLO, ID  PTCLDY    37  32  82 SW9       30.42R WCI  30
BURLEY         CLEAR     30  26  85 SW7       30.39S WCI  23
EVANSTON, WY   PTCLDY    27  20  75 SW8       30.39R WCI  19
ROCK SPRINGS   PTCLDY    31  20  63 W21       30.34R WCI  18

$$


USA.gov is the U.S. government's official web portal to all federal, state and local government web resources and services.